Location: Barcelona
(41.3830°N, 2.1830°E)
Time: 05:36:46
(UTC+02:00)

Tiangong 2 - Visible Passes

Search period start: 25 June 2019 00:00
Search period end: 05 July 2019 00:00
Orbit: 376 x 388 km, 42.8° (Epoch: 24 June)

Date Brightness Start Highest point End Pass type
(mag) Time Alt. Az. Time Alt. Az. Time Alt. Az.
25 Jun 3.5 04:39:17 12° SSE 04:39:47 12° SE 04:41:04 10° ESE visible
26 Jun 2.1 05:13:50 16° SSW 05:15:53 33° SSE 05:18:47 10° E visible
27 Jun 2.9 04:16:12 19° SE 04:16:12 19° SE 04:18:13 10° E visible
28 Jun 1.3 04:50:41 28° SW 04:52:01 52° SSE 04:55:06 10° E visible
29 Jun 2.7 03:52:58 24° ESE 03:52:58 24° ESE 03:54:44 10° E visible
29 Jun 1.1 05:25:16 10° W 05:28:25 78° N 05:31:36 10° ENE visible
30 Jun 0.9 04:27:25 47° WSW 04:28:10 78° SSE 04:31:20 10° ENE visible
01 Jul 3.1 03:29:41 22° E 03:29:41 22° E 03:31:02 10° E visible
01 Jul 1.3 05:01:51 12° W 05:04:39 67° N 05:07:48 10° E visible
02 Jul 1.0 04:04:09 74° WNW 04:04:21 80° N 04:07:31 10° ENE visible
02 Jul 1.3 05:38:02 10° WNW 05:41:10 71° N 05:44:19 10° E visible
03 Jul 3.7 03:06:30 16° E 03:06:30 16° E 03:07:14 10° ENE visible
03 Jul 1.4 04:38:40 18° WNW 04:40:52 64° N 04:44:00 10° E visible
04 Jul 1.8 03:41:06 52° NE 03:41:06 52° NE 03:43:41 10° E visible
04 Jul 1.0 05:14:12 10° WNW 05:17:21 87° NNE 05:20:31 10° ESE visible
